Location: *
(45.1961°N, 1.9694°E)
Time: 22:19:27
(UTC+00:00)

Cosmos 2082 Rocket - Pass Details

Date: 25 August 2019
Orbit: 831 x 855 km, 71.0° (Epoch: 21 September)

Event Time Altitude Azimuth Distance (km) Brightness Sun altitude
Rises 21:09:01 0° 212° (SSW) 3,372 5.2 -22.9°
Reaches altitude 10° 21:11:27 10° 214° (SW) 2,445 4.5 -23.2°
Maximum altitude 21:17:02 68° 298° (WNW) 903 2.4 -23.9°
Drops below altitude 10° 21:22:42 10° 22° (NNE) 2,477 4.9 -24.6°
Sets 21:25:12 0° 25° (NNE) 3,420 5.7 -24.9°
